CZ-4 DEB, 26152

Orbit data source: Space-Track

CZ-4 DEB, 26152 is space debris in SSO originally from a launch on Thu, 14 Oct 1999 UTC launched from the Taiyaun Space Center, China (TSC). Debris objects in space refer to the collection of defunct objects orbiting the Earth. Examples of debris include non-operational satellites, rocket bodies, and fragments generated from explosions, collisions, or faulty payload assembly.

Loading next visibility...
Identifier
26152, 1999-057AN
Orbit
SSO
Country
Flag of CNCN / PRC
Related business
Manufacturer
Unknown
Mission
Spacecraft
Bus & Motor
Unknown
Mass
Unknown
Launch date (UTC)
1999-10-14 (26 years ago)
Launch vehicle
Unknown
Launch site
Taiyaun Space Center, China (TSC)
Object type
Payload
Rocket body
Debris
Shape & HBR
Unknown
Radar Cross Section
Small (<0.1 m²)

Expand to show TLE details & history
Last TLE update: 20 hours ago

TLE from 20 hours ago
0 CZ-4 DEB
1 26152U 99057AN  25260.63054255  .00000577  00000-0  53659-3 0  9991
2 26152  99.1548 289.8854 0517876 269.3027 219.1443 13.38154147241649
Epoch: 2025-09-17T15:07Z
TLE epoch observation values (Epoch: 2025-09-17T15:07:58.876Z)
Latitude
54.17578°
Longitude
-101.07779°
Altitude
1,433.593 km
Speed
7.001 km/s
True Right ascension
08h 10m 53s
True Declination
54° 01' 36"
Sunlit
Object was in daylight at epoch
Visualization orbit readout
Latitude
Unknown
Longitude
Unknown
Altitude
Unknown
Speed
Unknown
Apparent Right ascension
Unknown
Apparent Declination
Unknown
Sunlit
N/A
Visualization observer readout
Local Sidereal Time
03:38:15
Azimuth
Unknown
Elevation
Unknown
Doppler factor
Unknown
Orbital elements
Apogee altitude
1,501.413 km
Perigee altitude
725.471 km
Semi-major axis
7,491.579 km
Eccentricity
0.05179
Inclination
99.1548°
RAAN
289.8854°
Arg. of periapsis
269.3027°
True anomaly
215.57974°
Mean anomaly
219.1443°
Eccentric anomaly
217.34438°
Mean motion
3.34721 °/min
Orbital period
107.55 mins
BSTAR
0.00053659
Loading maneuver chart data...
Computing Atmospheric mass density...
Loading historical data...
Loading historical data...
Loading historical data...
Loading historical data...
Loading historical data...
Loading historical data...
Loading historical data...

Documentation

Showing up to 5 results
|